Weather History for Puerto Barrios, Guatemala

Change the Weather History Date:

Sunday, November 4, 2012

  Actual Average Record
Temperature  
Mean Temperature 76 °F -  
Max Temperature 83 °F 81 °F 89 °F (1998)
Min Temperature 69 °F 69 °F 64 °F (2008)
Cooling Degree Days 11    
Growing Degree Days 26 (Base 50)    
Moisture  
Dew Point 73 °F    
Average Humidity 90    
Maximum Humidity 100    
Minimum Humidity 65    
Precipitation  
Precipitation 0.04 in - - ()
Sea Level Pressure  
Sea Level Pressure 29.95 in    
Wind  
Wind Speed 2 mph ()    
Max Wind Speed 12 mph    
Max Gust Speed -    
Visibility 6.0 miles    
Events      
Averages and records for this station are not official NWS values.
T = Trace of Precipitation, MM = Missing Value Source: Averaged Metar Reports

Daily Weather History Graph

Daily Weather History Graph

Search for Another Location

Airport:

Trip Planner

Search our weather history database for the weather conditions in past years. The results will help you decide how hot, cold, wet, or windy it might be!

Date:

Astronomy

Nov. 04, 2012 Rise Set
Actual Time 5:52 AM CST 5:23 PM CST
Civil Twilight 5:30 AM CST 5:45 PM CST
Nautical Twilight 5:04 AM CST 6:11 PM CST
Astronomical Twilight 4:38 AM CST 6:36 PM CST
Moon 10:07 PM CST (11/4) 10:26 AM CST (11/4)
Length of Visible Light 12h 15m
Length of Day
11h 31m
Waning Gibbous, 72% of the Moon is Illuminated
Nov 4
Waning Gibbous
Nov 6
Last Quarter
Nov 13
New
Nov 20
First Quarter
Nov 28
Full

Hourly Weather History & Observations

Time (CST) Temp. Heat Index Dew Point Humidity Pressure Visibility Wind Dir Wind Speed Gust Speed Precip Events Conditions
12:00 AM 71.6 °F - 71.6 °F 100% 30.01 in 6.2 mi Calm Calm - N/A   Scattered Clouds
1:00 AM 71.6 °F - 71.6 °F 100% 29.98 in 6.2 mi Calm Calm - N/A   Scattered Clouds
2:00 AM 71.6 °F - 69.8 °F 94% 29.95 in 6.2 mi Calm Calm - N/A   Mostly Cloudy
3:00 AM 71.6 °F - 71.6 °F 100% 29.95 in 6.2 mi Calm Calm - N/A   Scattered Clouds
4:00 AM 73.4 °F - 71.6 °F 94% 29.95 in 6.2 mi West 4.6 mph - N/A   Mostly Cloudy
5:00 AM 71.6 °F - 71.6 °F 100% 29.95 in 6.2 mi Calm Calm - N/A   Overcast
5:15 AM - - - N/A% - 5.0 mi Calm Calm - N/A   Light Drizzle
6:00 AM 73 °F - 72 °F 98% 29.99 in 5 mi Calm Calm - -   Overcast
6:00 AM 73.4 °F - 73.4 °F 100% 29.98 in 5.0 mi Calm Calm - N/A   Light Drizzle
7:00 AM 73.4 °F - 73.4 °F 100% 29.98 in 5.0 mi Calm Calm - N/A   Overcast
8:00 AM 75.2 °F - 73.4 °F 94% 29.98 in 5.0 mi Calm Calm - N/A   Light Drizzle
9:00 AM 75.2 °F - 73.4 °F 94% 29.98 in 6.2 mi Calm Calm - N/A   Mostly Cloudy
10:00 AM 78.8 °F - 71.6 °F 78% 29.98 in 6.2 mi Calm Calm - N/A   Scattered Clouds
11:00 AM 82.4 °F 87.2 °F 71.6 °F 70% 29.95 in 6.2 mi North 9.2 mph - N/A   Scattered Clouds
12:00 PM 83 °F - 73 °F 65% 29.95 in 25 mi North 11.5 mph - -   Partly Cloudy
12:00 PM 82.4 °F 88.2 °F 73.4 °F 74% 29.95 in 6.2 mi North 11.5 mph - N/A   Scattered Clouds
1:00 PM 82.4 °F 89.5 °F 75.2 °F 79% 29.92 in - North 11.5 mph - N/A   Scattered Clouds
2:00 PM 82.4 °F 88.2 °F 73.4 °F 74% 29.89 in 6.2 mi North 9.2 mph - N/A   Scattered Clouds
3:00 PM 82.4 °F 89.5 °F 75.2 °F 79% 29.89 in 6.2 mi North 9.2 mph - N/A   Scattered Clouds
4:00 PM 80.6 °F 85.4 °F 73.4 °F 79% 29.89 in 6.2 mi Calm Calm - N/A   Mostly Cloudy
5:00 PM 78.8 °F - 73.4 °F 83% 29.89 in 6.2 mi Calm Calm - N/A   Mostly Cloudy
6:00 PM 77.0 °F - 73.4 °F 89% 29.92 in 6.2 mi Calm Calm - N/A   Scattered Clouds
7:00 PM 75.2 °F - 75.2 °F 100% 29.92 in 6.2 mi Calm Calm - N/A   Scattered Clouds
8:00 PM 75.2 °F - 73.4 °F 94% 29.95 in 6.2 mi Calm Calm - N/A   Partly Cloudy
9:00 PM 75.2 °F - 73.4 °F 94% 29.98 in 6.2 mi Calm Calm - N/A   Scattered Clouds
10:00 PM 73.4 °F - 73.4 °F 100% 29.98 in 6.2 mi Calm Calm - N/A   Partly Cloudy
11:00 PM 73.4 °F - 73.4 °F 100% 29.95 in 6.2 mi Calm Calm - N/A   Partly Cloudy